Location: Vancouver
(49.2500°N, 123.1330°W)
Time: 21:53:15
(UTC-07:00)

A-11 Canister half - Visible Passes

Search period start: 23 July 2016 00:00
Search period end: 02 August 2016 00:00
Orbit: 1525 x 1684 km, 47.3° (Epoch: 23 July)

Date Brightness Start Highest point End Pass type
(mag) Time Alt. Az. Time Alt. Az. Time Alt. Az.
24 Jul 10.2 04:57:32 10° SSW 05:06:06 33° SE 05:14:32 10° E visible
25 Jul 10.2 04:36:07 10° SSW 04:44:35 32° SE 04:52:54 10° E visible
26 Jul 10.2 04:14:44 10° SSW 04:23:03 30° SE 04:31:15 10° E visible
27 Jul 10.2 03:53:34 11° S 04:01:32 29° SE 04:09:36 10° E visible
28 Jul 10.3 03:33:08 13° S 03:40:00 28° SE 03:47:56 10° E visible
29 Jul 10.3 03:12:40 16° S 03:18:29 26° SE 03:26:15 10° E visible
30 Jul 10.3 02:52:09 18° SSE 02:56:59 25° SE 03:04:35 10° E visible
30 Jul 9.5 04:50:47 10° SW 05:00:38 58° SSE 05:10:18 10° ENE visible
31 Jul 10.3 02:31:36 19° SSE 02:35:28 24° SE 02:42:53 10° E visible
31 Jul 9.4 04:29:53 12° SW 04:39:03 57° SSE 04:48:43 10° ENE visible
01 Aug 10.2 02:11:01 20° SSE 02:13:57 23° SE 02:21:10 10° E visible
01 Aug 9.4 04:09:18 16° SW 04:17:29 55° SSE 04:27:07 10° ENE visible
